[[{"header":{"parameterUnit":"m.s-1","parameterCategory":1,"la1":30.2991,"la2":30.254,"lo1":-89.0895,"lo2":-89.0444,"dy":0.0017,"dx":0.0017,"nx":28,"ny":28,"refTime":"2025-04-09T03:00:00:Z","depth":0,"parameterNumber":2,"parameterNumberName":"U-component_of_WINDS"},"data":[0,0,0,0,0,0,0,0,0,0,0,0,0,0,0,0,0,0,0,0,0,0,0,0,0,0,0,0,0,0,0,0,0,0,0,0,0,0,0,0,0,0,0,0,0,0,0,0,0,0,0,0,0,0,0,0,0,0,0.578,0.578,0,0.5806,0.5807,0.5807,0.5852,0.5853,0.5854,0.5855,0.5881,0.588,0.588,0,0,0,0,0,0,0,0,0,0,0,0,0,0.5768,0.5768,0.578,0.578,0.5781,0.5806,0.5807,0.5807,0.5852,0.5853,0.5854,0.5855,0.5881,0.588,0.588,0,0,0,0,0,0,0,0,0,0,0,0,0,0.5782,0.5768,0.578,0.5806,0.5809,0.5806,0.5807,0.5807,0.5852,0.5853,0.5854,0.5856,0.5881,0.588,0.588,0.5854,0,0,0.588,0.588,0,0,0,0,0,0,0,0,0.5781,0.5782,0.5802,0.5804,0.5807,0.5827,0.5812,0.5823,0.5852,0.5835,0.5855,0.5856,0.5862,0.5863,0.5865,0.5855,0.5856,0.588,0.588,0.588,0.588,0,0,0,0,0,0,0,0.578,0.5781,0.579,0.5802,0.5806,0.5817,0.582,0.5814,0.5841,0.5837,0.584,0.5843,0.5863,0.5865,0.5866,0.5856,0.588,0.588,0.588,0.5879,0.5826,0.5824,0,0,0,0,0,0,0.5775,0.578,0.5789,0.5791,0.5797,0.5816,0.5819,0.582,0.5841,0.5846,0.5842,0.5845,0.5865,0.5866,0.5867,0.5838,0.588,0.5879,0.5879,0.5827,0.5825,0.5824,0,0,0,0,0,0,0.5775,0.5776,0.5788,0.5787,0.5789,0.5815,0.5814,0.5819,0.5821,0.5845,0.585,0.5839,0.5866,0.5868,0.5857,0.5839,0.5879,0.5879,0.5829,0.5827,0.5825,0.5778,0,0,0,0,0,0,0.5774,0.5775,0.5765,0.5786,0.5789,0.5778,0.5813,0.5819,0.5821,0.5825,0.5843,0.5848,0.5867,0.5857,0.5857,0.584,0.5879,0.583,0.5828,0.5825,0.5781,0.5775,0.5769,0,0,0,0,0,0.5774,0.5751,0.5765,0.5765,0.5777,0.5776,0.5778,0.5801,0.582,0.581,0.5825,0.5847,0.5841,0.5855,0.5856,0.5838,0.5831,0.5828,0.5825,0.5784,0.5776,0.5769,0,0,0,0,0,0,0.5727,0.5754,0.577,0.5753,0.5762,0.5784,0.5773,0.5792,0.5796,0.58,0.5828,0.5832,0.5818,0.5827,0.5842,0.5814,0.584,0.5837,0.5808,0.5801,0.5795,0.5793,0.5879,0,0,0,0,0,0.5715,0.5712,0.5736,0.5719,0.5723,0.5747,0.5747,0.5764,0.5775,0.5779,0.5793,0.5802,0.5803,0.5802,0.5804,0.5783,0.5788,0.5771,0.5765,0.576,0.5757,0.5747,0.574,0.5814,0.5814,0.5814,0,0,0.5689,0.5704,0.57,0.571,0.5719,0.5715,0.575,0.5744,0.5742,0.5778,0.5769,0.578,0.5792,0.5776,0.577,0.5783,0.5738,0.5756,0.5752,0.5752,0.5743,0.5736,0.573,0.5812,0.5812,0.5813,0,0,0.5641,0.5652,0.5639,0.5648,0.5662,0.5678,0.5675,0.5694,0.5703,0.5694,0.5721,0.5719,0.5719,0.5726,0.573,0.5686,0.5706,0.5685,0.5654,0.5644,0.5638,0.5633,0.5617,0.5611,0.5682,0.5682,0.5682,0,0.5608,0.5604,0.563,0.5623,0.5626,0.566,0.5647,0.5654,0.5667,0.5669,0.5684,0.5685,0.5695,0.5682,0.5671,0.5673,0.567,0.5683,0.5637,0.5632,0.5627,0.5613,0.5607,0.568,0.568,0.568,0.568,0,0.5562,0.5559,0.5547,0.556,0.5562,0.5552,0.5576,0.5575,0.5592,0.5607,0.5598,0.5612,0.5617,0.5615,0.5631,0.5604,0.5612,0.5631,0.5658,0.5617,0.5604,0.5599,0.5676,0.5677,0.5678,0.5678,0,0,0.5485,0.5513,0.5508,0.5514,0.5532,0.553,0.5522,0.5527,0.5526,0.5534,0.5528,0.5527,0.5546,0.555,0.5567,0.5559,0.5523,0.5579,0.558,0.5568,0.5494,0.5479,0.5472,0.5537,0.5536,0.5535,0.5493,0,0.5441,0.5429,0.5452,0.5434,0.5432,0.5464,0.5456,0.5466,0.548,0.548,0.5495,0.5494,0.5518,0.5521,0.5513,0.5529,0.5508,0.5532,0.5531,0.5531,0.5527,0.5465,0.545,0.5409,0.5488,0.5487,0.5486,0,0.5388,0.5394,0.5376,0.5395,0.5395,0.5388,0.5396,0.5395,0.5407,0.5418,0.5423,0.5444,0.5437,0.5463,0.5454,0.5469,0.547,0.5478,0.5477,0.5478,0.5506,0.5464,0.5397,0.5391,0.5478,0.5479,0.5479,0,0.5334,0.5337,0.5327,0.5332,0.5354,0.5348,0.5357,0.5371,0.5373,0.5379,0.5381,0.5386,0.5388,0.5392,0.5414,0.543,0.5402,0.543,0.541,0.541,0.5403,0.5403,0.5335,0.5403,0.5403,0.5404,0.5404,0,0.5282,0.527,0.5303,0.5297,0.5284,0.5311,0.5298,0.531,0.5322,0.5318,0.5346,0.5342,0.5371,0.537,0.5387,0.5377,0.5378,0.5387,0.5391,0.5384,0.5383,0.5385,0.5388,0.5402,0.5402,0.5403,0.5403,0,0.5219,0.5241,0.5232,0.5254,0.526,0.5249,0.5268,0.5263,0.5279,0.5274,0.5274,0.5299,0.5299,0.5321,0.5326,0.5338,0.5321,0.5331,0.5317,0.532,0.53,0.5302,0.523,0.5223,0.5296,0.5295,0.5295,0,0.5185,0.5176,0.5198,0.5198,0.5205,0.5205,0.5207,0.5233,0.5235,0.5248,0.5241,0.5244,0.5248,0.5248,0.5265,0.527,0.528,0.5255,0.5281,0.5274,0.528,0.528,0.5279,0.5249,0.5248,0.5247,0.5247,0,0.5121,0.5133,0.5135,0.5142,0.5144,0.515,0.5158,0.5156,0.5185,0.5185,0.5186,0.5189,0.5195,0.5197,0.5205,0.5214,0.5235,0.5239,0.5234,0.5227,0.5219,0.5223,0.5302,0.524,0.5241,0.5241,0.5242,0.5242,0.5072,0.5066,0.508,0.5082,0.5091,0.5098,0.5095,0.511,0.5112,0.5118,0.5134,0.5133,0.5145,0.5158,0.5165,0.5164,0.5177,0.5171,0.5169,0.5168,0.5164,0.5219,0.5166,0.5166,0.5166,0.5166,0.5167,0,0.501,0.5021,0.5023,0.5033,0.5035,0.5055,0.5065,0.5065,0.5064,0.5074,0.5077,0.5079,0.5081,0.51,0.5105,0.5101,0.511,0.5101,0.5102,0.5103,0.5152,0.5155,0.5093,0.5093,0.5093,0.5093,0.5093,0.5093,0.4978,0.497,0.4983,0.4978,0.4989,0.4989,0.4993,0.4999,0.5008,0.5008,0.5011,0.5023,0.5037,0.5043,0.5046,0.5051,0.5052,0.5039,0.5048,0.5093,0.51,0.5107,0.511,0.5039,0.5039,0.4999,0.4999,0.4999]},{"header":{"parameterUnit":"m.s-1","parameterCategory":1,"la1":30.2991,"la2":30.254,"lo1":-89.0895,"lo2":-89.0444,"dy":0.0017,"dx":0.0017,"nx":28,"ny":28,"refTime":"2025-04-09T03:00:00:Z","depth":0,"parameterNumber":3,"parameterNumberName":"V-component_of_WINDS"},"data":[0,0,0,0,0,0,0,0,0,0,0,0,0,0,0,0,0,0,0,0,0,0,0,0,0,0,0,0,0,0,0,0,0,0,0,0,0,0,0,0,0,0,0,0,0,0,0,0,0,0,0,0,0,0,0,0,0,0,-0.5094,-0.5093,0,-0.5047,-0.5046,-0.5046,-0.5012,-0.5012,-0.5011,-0.5011,-0.4963,-0.4962,-0.4961,0,0,0,0,0,0,0,0,0,0,0,0,0,-0.5156,-0.5155,-0.5094,-0.5093,-0.5092,-0.5047,-0.5046,-0.5046,-0.5012,-0.5012,-0.5011,-0.5011,-0.4963,-0.4962,-0.4961,0,0,0,0,0,0,0,0,0,0,0,0,0,-0.5121,-0.5155,-0.5094,-0.507,-0.5068,-0.5047,-0.5046,-0.5045,-0.5012,-0.5012,-0.5011,-0.5011,-0.4964,-0.4962,-0.4961,-0.496,0,0,-0.4956,-0.4956,0,0,0,0,0,0,0,0,-0.5123,-0.5119,-0.5074,-0.5072,-0.5069,-0.5035,-0.5051,-0.5017,-0.5012,-0.5033,-0.5011,-0.5011,-0.4987,-0.4984,-0.4976,-0.4958,-0.4956,-0.4956,-0.4955,-0.4954,-0.4954,0,0,0,0,0,0,0,-0.5126,-0.5121,-0.5075,-0.5074,-0.507,-0.5063,-0.5057,-0.5044,-0.5013,-0.5031,-0.5029,-0.5024,-0.4986,-0.4978,-0.4975,-0.4955,-0.4956,-0.4955,-0.4954,-0.4953,-0.4937,-0.4937,0,0,0,0,0,0,-0.5131,-0.5123,-0.5077,-0.5074,-0.5095,-0.5062,-0.5056,-0.5046,-0.5013,-0.5008,-0.5024,-0.5022,-0.498,-0.4976,-0.4973,-0.4972,-0.4955,-0.4953,-0.4952,-0.4936,-0.4937,-0.4938,0,0,0,0,0,0,-0.5133,-0.5128,-0.5078,-0.5098,-0.5091,-0.5061,-0.5051,-0.5045,-0.5037,-0.5008,-0.5002,-0.5021,-0.498,-0.4975,-0.4964,-0.4969,-0.4952,-0.4951,-0.4936,-0.4937,-0.4937,-0.4968,0,0,0,0,0,0,-0.5135,-0.5128,-0.5127,-0.5098,-0.509,-0.507,-0.5051,-0.5045,-0.5035,-0.5032,-0.5004,-0.4998,-0.4979,-0.4967,-0.4963,-0.4967,-0.495,-0.4935,-0.4936,-0.4937,-0.4966,-0.497,-0.4972,0,0,0,0,0,-0.5137,-0.5136,-0.5127,-0.5121,-0.5087,-0.507,-0.5066,-0.5043,-0.5035,-0.5034,-0.5016,-0.4999,-0.497,-0.4966,-0.4961,-0.4965,-0.4935,-0.4936,-0.4937,-0.4965,-0.4969,-0.4972,0,0,0,0,0,0,-0.5166,-0.5132,-0.5121,-0.5111,-0.5094,-0.5064,-0.5062,-0.5048,-0.5033,-0.5031,-0.5004,-0.4998,-0.499,-0.4976,-0.4973,-0.4964,-0.495,-0.4951,-0.4973,-0.4977,-0.498,-0.4983,-0.4949,0,0,0,0,0,-0.5171,-0.516,-0.5131,-0.5125,-0.5117,-0.5091,-0.5083,-0.5068,-0.5049,-0.5041,-0.5022,-0.5005,-0.4992,-0.4983,-0.4969,-0.4964,-0.4959,-0.4965,-0.4968,-0.4971,-0.4971,-0.4971,-0.4974,-0.4941,-0.4941,-0.4941,0,0,-0.5181,-0.5162,-0.5156,-0.513,-0.5115,-0.5105,-0.5085,-0.5074,-0.5067,-0.5039,-0.5029,-0.5014,-0.4993,-0.4986,-0.4982,-0.4974,-0.4979,-0.4972,-0.4975,-0.4974,-0.4972,-0.4975,-0.4978,-0.4942,-0.4942,-0.4942,0,0,-0.5195,-0.5178,-0.5173,-0.5159,-0.5137,-0.5121,-0.512,-0.5093,-0.5083,-0.5072,-0.5052,-0.5043,-0.5021,-0.5007,-0.4998,-0.5011,-0.4996,-0.5007,-0.5023,-0.5023,-0.5026,-0.5028,-0.5034,-0.5037,-0.5008,-0.5008,-0.5008,0,-0.521,-0.5194,-0.5171,-0.5163,-0.5153,-0.513,-0.5125,-0.5112,-0.5087,-0.5081,-0.5073,-0.5047,-0.5031,-0.5022,-0.5026,-0.5018,-0.5017,-0.501,-0.5027,-0.5029,-0.5031,-0.5037,-0.5039,-0.501,-0.501,-0.5009,-0.5009,0,-0.5215,-0.5205,-0.5203,-0.5181,-0.5171,-0.5164,-0.5142,-0.5135,-0.5122,-0.5107,-0.5097,-0.5078,-0.5061,-0.5058,-0.5044,-0.5048,-0.5044,-0.5032,-0.5018,-0.5036,-0.5041,-0.5043,-0.5012,-0.5011,-0.5011,-0.5011,0,0,-0.5243,-0.5211,-0.5211,-0.5202,-0.5178,-0.517,-0.5163,-0.5148,-0.5144,-0.5128,-0.5123,-0.5106,-0.5096,-0.5085,-0.507,-0.5069,-0.5084,-0.5058,-0.5057,-0.5065,-0.509,-0.51,-0.5103,-0.5075,-0.5075,-0.5075,-0.5093,0,-0.5254,-0.5241,-0.5222,-0.5216,-0.5207,-0.5186,-0.5181,-0.5167,-0.5154,-0.5145,-0.513,-0.512,-0.5106,-0.51,-0.5099,-0.5083,-0.5089,-0.5081,-0.5071,-0.5071,-0.5078,-0.5106,-0.5115,-0.5132,-0.5094,-0.5095,-0.5095,0,-0.5263,-0.5251,-0.5244,-0.5225,-0.522,-0.5216,-0.5202,-0.5194,-0.5178,-0.5169,-0.5159,-0.5143,-0.5137,-0.5125,-0.5117,-0.5112,-0.5107,-0.5099,-0.5099,-0.5098,-0.5084,-0.5106,-0.5137,-0.514,-0.5098,-0.5097,-0.5097,0,-0.5286,-0.5268,-0.5262,-0.5255,-0.5231,-0.5229,-0.5219,-0.5203,-0.5197,-0.5185,-0.5181,-0.5168,-0.5161,-0.5153,-0.5135,-0.5127,-0.513,-0.5115,-0.5123,-0.5124,-0.5124,-0.5125,-0.5156,-0.512,-0.512,-0.512,-0.512,0,-0.53,-0.5298,-0.5273,-0.5269,-0.5267,-0.5246,-0.5244,-0.5233,-0.5219,-0.5214,-0.5196,-0.5191,-0.5168,-0.5161,-0.5147,-0.5145,-0.5141,-0.5135,-0.5131,-0.5137,-0.5138,-0.5133,-0.5132,-0.5121,-0.512,-0.512,-0.512,0,-0.5325,-0.5308,-0.5301,-0.528,-0.5275,-0.5274,-0.5257,-0.5254,-0.5241,-0.5235,-0.5233,-0.5213,-0.5205,-0.5186,-0.5172,-0.5164,-0.5165,-0.5158,-0.517,-0.5168,-0.5178,-0.5178,-0.5208,-0.5212,-0.5173,-0.5173,-0.5173,0,-0.5335,-0.5332,-0.5313,-0.5309,-0.53,-0.5293,-0.5287,-0.5269,-0.5263,-0.5248,-0.5247,-0.5238,-0.5229,-0.5218,-0.5202,-0.5192,-0.5186,-0.5197,-0.5184,-0.5191,-0.5188,-0.5189,-0.5189,-0.52,-0.52,-0.5201,-0.5201,0,-0.5355,-0.5348,-0.534,-0.533,-0.5324,-0.5315,-0.5305,-0.5303,-0.5282,-0.5277,-0.527,-0.5263,-0.5251,-0.5243,-0.5232,-0.5222,-0.5209,-0.5206,-0.5207,-0.5213,-0.5222,-0.5219,-0.5179,-0.5205,-0.5205,-0.5204,-0.5204,-0.5204,-0.5373,-0.5372,-0.5359,-0.5352,-0.5343,-0.5335,-0.5332,-0.5321,-0.5314,-0.5303,-0.5293,-0.5287,-0.5275,-0.5259,-0.5251,-0.5247,-0.524,-0.5242,-0.5242,-0.5243,-0.5247,-0.5222,-0.5245,-0.5244,-0.5244,-0.5244,-0.5244,0,-0.5394,-0.5386,-0.5379,-0.5368,-0.5363,-0.5352,-0.5342,-0.5339,-0.5334,-0.5324,-0.5317,-0.5311,-0.5304,-0.5289,-0.5281,-0.5281,-0.5275,-0.5279,-0.5279,-0.5278,-0.5252,-0.5253,-0.5285,-0.5285,-0.5285,-0.5285,-0.5285,-0.5285,-0.5404,-0.5402,-0.5394,-0.5388,-0.538,-0.5375,-0.5371,-0.5364,-0.5357,-0.535,-0.5345,-0.5336,-0.5325,-0.5317,-0.5311,-0.5307,-0.5306,-0.5313,-0.5307,-0.5283,-0.5279,-0.5276,-0.5276,-0.5312,-0.5312,-0.5333,-0.5333,-0.5333]}]]